SCP
0 0 0 0 0 0 0 0 0 0 0 1 1 1 1 0 0 0 0 0 0 0 0 0 0 0 0 0 0 0 0 0 0 0 0 0 0 0 0 0 0 0 0 0
0 0 0 0 0 0 0 0 0 0 1 1 1 1 1 0 0 0 0 0 0 0 0 0 0 0 0 0 0 0 0 0 0 0 0 0 0 0 0 0 0 0 0 0
0 0 0 0 0 0 0 0 0 0 1 1 1 1 0 0 0 0 0 0 0 0 0 0 0 0 0 0 0 0 0 0 0 0 0 0 0 0 0 0 0 0 0 0
0 0 0 0 0 0 0 0 0 1 1 1 0 0 0 0 0 0 0 0 0 0 0 0 0 0 0 0 0 0 0 0 0 0 0 0 0 0 0 0 0 0 0 0
0 0 0 0 0 0 0 0 0 0 0 0 0 0 0 0 0 0 0 0 0 0 0 0 0 0 0 0 0 0 0 0 0 0 0 0 0 0 0 0 0 0 0 0
0 0 0 0 0 0 0 0 0 0 0 0 0 0 0 0 0 0 0 0 0 0 0 0 0 0 0 0 0 0 0 0 0 0 0 0 0 0 0 0 0 0 0 0
0 0 0 0 0 0 0 0 0 0 0 0 0 0 0 0 0 0 0 0 0 0 0 0 0 0 0 0 0 0 0 0 0 0 0 0 0 0 0 0 0 0 0 0
0 0 0 0 0 0 0 0 0 0 0 0 0 0 0 0 0 0 0 0 0 0 0 0 0 0 0 0 0 0 0 0 0 0 0 0 0 0 0 0 0 0 0 0
0 0 0 0 0 0 0 0 0 0 0 0 0 0 0 0 0 0 0 0 0 0 0 0 0 0 0 0 0 0 0 0 0 0 0 0 0 0 0 0 0 0 0 0
0 0 0 0 0 0 0 0 0 0 0 0 0 0 0 0 0 0 0 0 0 0 0 0 0 0 0 0 0 0 0 0 0 0 0 0 0 0 0 0 0 0 0 0
0 0 0 0 0 0 0 0 0 0 0 0 0 0 0 0 0 0 0 0 0 0 0 0 0 0 0 0 0 0 0 0 0 0 0 0 0 0 0 0 0 0 0 0
0 0 0 0 0 0 0 0 0 0 0 0 0 0 0 0 0 0 0 0 0 0 0 0 0 0 0 0 0 0 0 0 0 0 0 0 0 0 0 0 0 0 0 0
0 0 0 0 0 0 0 0 0 0 0 0 0 0 0 0 0 0 0 0 0 0 0 0 0 0 0 0 0 0 0 0 0 0 0 0 0 0 0 0 0 0 0 0
0 0 0 0 0 0 0 0 0 0 0 0 0 0 0 0 0 0 0 0 0 0 0 0 0 0 0 0 0 0 0 0 0 0 0 0 0 0 0 0 0 0 0 0
0 0 0 0 0 0 0 0 0 0 0 0 0 0 0 0 0 0 0 0 0 0 0 0 0 0 0 0 0 0 0 0 0 0 0 0 0 0 0 0 0 0 0 0
0 0 0 0 0 0 0 0 0 0 0 0 0 0 0 0 0 0 0 0 0 0 0 0 0 0 0 0 0 0 0 0 0 0 0 0 0 0 0 0 0 0 0 0
0 0 0 0 0 0 0 0 0 0 0 0 0 0 0 0 0 0 0 0 0 0 0 0 0 0 0 0 0 0 0 0 0 0 0 0 0 0 0 0 0 0 0 0
0 0 0 0 0 0 0 0 0 0 0 0 0 0 0 0 0 0 0 0 0 0 0 0 0 0 0 0 0 0 0 0 0 0 0 0 0 0 0 0 0 0 0 0
0 0 0 0 0 0 0 0 0 0 0 0 0 0 0 0 0 0 0 0 0 0 0 0 0 0 0 0 0 0 0 0 0 0 0 0 0 0 0 0 0 0 0 0
0 0 0 0 0 0 0 0 0 0 0 0 0 0 0 0 0 0 0 0 0 0 0 0 0 0 0 0 0 0 0 0 0 0 0 0 0 0 0 0 0 0 0 0
0 0 0 0 0 0 0 0 0 0 -0 0 0 0 0 0 0 0 0 0 0 0 0 0 0 0 0 0 0 0 0 0 0 0 0 0 0 0 0 0 0 0 0 0
0 0 0 0 0 0 0 0 -0 -0 -0 -0 0 0 0 0 0 0 0 0 0 0 0 0 0 0 0 0 0 0 0 0 0 0 0 0 0 0 0 0 0 0 0 0
0 0 0 0 0 0 0 -0 -0 -0 -0 -0 0 0 0 0 0 0 0 0 0 0 0 0 0 0 0 0 0 0 0 0 0 0 0 0 0 0 0 0 0 0 0 0
0 0 0 0 0 0 0 0 -0 -0 -0 0 0 0 0 0 0 0 0 0 0 0 0 0 0 0 0 0 0 0 0 0 0 0 0 0 0 0 0 0 0 0 0 0
0 0 0 0 0 0 0 0 -0 -0 -0 -0 0 0 0 0 0 0 0 0 0 0 0 0 0 0 0 0 0 0 0 0 0 0 0 0 0 0 0 0 0 0 0 0
0 0 0 0 0 0 0 0 -0 -0 -0 -0 0 0 -0 0 0 0 0 0 0 0 0 0 0 0 0 0 0 0 -0 0 0 0 0 0 0 0 0 0 0 0 0 0
0 0 0 0 0 0 0 0 -0 -0 -0 -0 -0 -0 -0 0 0 0 0 0 0 0 0 0 0 0 0 0 0 0 0 0 0 0 0 0 0 0 0 0 0 0 0 0
Wind_Speed
3 2 2 3 3 4 6 7 8 3 5 10 11 11 12 12 12 12 12 11 11 11 10 10 10 10 10 10 10 10 11 11 11 10 9 9 9 8 7 7 7 6 5 3
4 3 3 3 3 3 3 4 4 1 2 8 10 10 11 11 11 12 11 11 11 11 10 10 9 9 9 10 9 9 10 10 9 9 8 8 8 7 7 6 5 4 3 3
6 4 7 7 3 4 3 4 4 4 3 10 11 10 9 10 11 11 11 11 11 10 9 9 9 9 9 9 9 9 9 9 8 8 7 7 6 6 5 4 4 3 3 3
6 5 9 4 6 5 3 4 6 4 7 10 12 12 11 9 11 11 11 11 10 9 9 9 9 9 9 9 9 9 8 7 7 7 7 6 6 5 4 3 3 3 3 4
5 7 5 5 4 5 4 3 7 7 11 13 14 13 10 10 10 11 11 10 9 9 9 9 9 9 9 9 8 8 8 7 6 6 6 5 5 5 4 3 3 3 3 4
6 7 3 6 7 6 5 2 6 6 9 10 7 4 5 8 10 11 10 9 9 9 9 9 8 8 9 8 8 7 7 6 6 6 5 5 5 4 4 3 3 3 3 4
6 5 3 8 9 6 3 4 4 5 6 6 4 8 11 11 11 11 11 10 10 9 9 8 7 7 8 8 7 7 6 6 6 5 5 4 4 3 3 3 3 4 4 3
4 3 3 10 7 6 6 4 4 6 8 11 13 14 13 12 11 11 11 10 9 9 9 8 7 7 7 8 7 6 5 5 5 4 3 3 2 2 3 3 3 3 4 4
4 3 4 5 5 4 3 3 4 7 10 13 14 13 13 12 11 11 11 10 9 9 9 7 6 6 7 6 5 4 4 4 4 3 3 3 3 3 2 3 3 4 4 5
1 2 2 3 4 5 5 5 5 7 11 13 14 14 13 12 11 10 10 9 8 9 8 8 7 6 6 5 3 3 3 3 2 2 2 2 3 4 4 5 5 5 5 6
3 1 2 3 4 5 6 6 8 9 11 13 15 14 13 12 11 9 9 8 7 7 8 8 7 6 5 4 3 3 2 1 1 2 3 2 3 5 6 7 7 7 7 7
3 4 2 5 5 5 6 8 9 11 12 12 13 14 13 11 10 10 9 8 7 7 7 7 6 5 5 4 3 2 1 1 2 2 2 3 2 3 5 4 3 1 3 6
3 5 6 7 7 7 8 9 10 12 14 13 12 12 12 11 10 10 9 8 7 7 6 5 4 4 4 3 3 2 2 3 3 2 2 3 4 3 2 3 4 3 0 3
4 5 6 7 8 9 11 12 12 13 13 13 12 12 12 11 10 9 8 8 7 6 5 4 3 3 3 2 3 3 3 1 2 2 3 3 4 4 4 5 3 2 1 2
3 2 7 10 11 11 11 13 14 14 13 13 12 12 11 10 10 9 8 7 6 5 4 3 3 4 4 4 4 4 4 2 2 2 2 3 3 4 4 5 5 5 5 4
7 9 11 12 12 12 12 13 14 14 13 13 12 11 11 10 9 8 7 5 4 5 4 4 4 5 4 4 4 2 1 4 4 2 2 2 3 4 5 5 5 5 5 6
10 11 12 13 13 12 12 12 13 13 13 12 12 11 10 9 8 7 6 5 5 4 4 4 5 5 5 4 5 3 2 5 3 1 2 4 4 5 5 5 5 5 5 6
8 10 12 13 13 13 13 13 13 13 12 12 11 10 9 8 7 7 6 5 4 4 4 5 6 5 5 5 4 3 2 2 2 3 4 5 4 4 4 5 5 5 4 4
10 12 13 14 14 13 13 13 13 12 12 11 10 9 8 7 7 6 5 4 3 4 5 5 3 3 5 5 4 1 2 3 4 4 4 3 2 4 5 5 4 4 4 5
12 14 15 15 14 14 13 13 12 11 10 10 10 9 8 7 6 6 4 4 5 5 5 5 3 4 4 4 6 2 4 3 4 4 3 3 4 4 4 5 5 5 5 5
14 15 15 15 14 14 13 13 12 11 10 9 9 9 8 7 6 4 3 5 5 4 2 1 1 4 4 2 3 3 4 4 4 4 4 4 4 4 4 4 4 5 5 5
14 14 15 14 14 13 12 11 11 11 10 9 9 9 8 7 6 5 4 4 5 2 3 3 6 6 5 6 2 4 4 4 4 4 4 4 4 4 5 5 5 5 5 5
13 14 14 14 14 13 12 11 11 10 10 9 8 8 6 5 4 4 5 4 4 3 3 7 5 3 8 3 4 4 5 4 4 4 4 4 4 4 5 5 5 5 5 5
13 13 13 13 13 13 12 12 11 9 9 9 8 7 6 5 4 4 6 6 3 2 5 6 1 3 8 1 4 4 4 4 4 4 4 4 4 4 5 5 5 5 5 6
13 13 13 14 13 11 12 12 11 10 10 7 8 7 5 4 5 5 5 6 5 2 5 6 2 6 3 4 4 5 6 6 5 4 4 4 4 5 5 5 5 5 5 5
12 11 11 11 9 9 10 10 9 9 8 8 7 6 5 5 5 5 4 5 5 1 2 5 4 3 3 5 5 5 5 5 3 3 5 4 5 5 5 5 5 5 5 5
11 10 10 10 10 10 9 9 9 9 8 8 7 7 6 6 5 5 4 4 4 3 3 3 3 4 4 5 5 4 4 4 4 4 4 4 4 4 5 4 4 4 4 5
Wind_Direction
316 328 261 234 244 245 257 283 283 269 157 158 154 142 132 125 120 112 106 101 97 95 92 87 83 80 80 78 78 83 85 83 81 81 82 81 79 78 77 75 77 76 77 78
250 244 258 254 265 270 287 299 295 240 108 108 121 121 119 118 115 109 105 102 99 97 94 91 89 89 88 86 85 88 88 87 85 83 83 83 83 81 79 76 76 74 65 48
254 248 258 243 334 324 311 338 310 290 108 127 121 109 108 110 109 106 105 102 98 94 92 93 93 95 94 94 93 91 89 88 89 90 88 87 86 84 81 78 71 55 41 28
270 259 249 67 49 14 356 14 4 43 105 114 103 89 76 87 103 104 104 103 103 103 99 97 98 97 98 97 95 93 94 95 94 94 91 85 81 76 69 59 47 35 21 11
270 255 240 118 50 357 330 34 38 87 105 109 115 99 71 69 87 97 100 102 103 104 105 106 106 107 106 102 102 103 101 98 95 92 89 85 78 70 55 39 30 12 17 1
260 269 275 62 18 339 287 115 65 100 124 138 155 135 105 99 100 101 103 104 106 108 108 107 111 116 112 111 109 103 98 93 87 82 77 72 67 55 49 28 17 1 14 356
269 263 62 26 336 306 294 56 60 102 119 121 69 84 114 114 108 108 108 110 112 113 109 110 114 112 107 103 98 97 97 90 81 77 75 66 59 45 27 13 13 359 358 355
309 284 54 11 2 25 28 28 76 102 106 103 104 109 115 116 115 116 116 117 118 113 108 109 112 111 105 98 99 103 99 91 81 65 51 61 46 24 2 347 349 359 356 349
3 26 52 38 44 42 26 50 76 103 115 121 122 123 121 120 119 121 120 118 118 115 112 111 109 101 96 96 98 100 99 87 74 62 50 26 2 0 348 346 354 356 352 349
317 100 81 61 64 57 51 64 84 112 126 129 127 128 126 124 123 122 120 119 119 116 112 107 101 93 87 84 79 86 86 77 62 39 40 41 356 3 4 5 2 357 355 350
295 76 116 96 62 66 79 91 104 114 122 129 130 129 127 126 126 125 121 117 115 108 105 104 100 91 82 74 63 64 69 52 25 37 35 20 35 34 11 38 23 352 352 349
358 39 7 78 88 95 103 105 112 118 118 122 126 126 128 128 127 123 120 118 112 108 107 104 100 90 76 60 43 20 8 5 5 20 20 5 30 105 93 53 108 62 352 339
31 54 74 102 102 100 104 107 113 119 122 123 127 130 130 125 122 121 120 117 113 111 107 100 91 80 66 44 19 6 355 352 348 1 8 7 16 24 72 143 178 177 312 347
113 114 116 121 113 112 112 112 112 115 121 126 130 131 126 123 123 121 116 113 112 111 106 96 76 58 38 18 349 332 326 52 322 352 11 19 24 26 27 22 28 36 83 22
152 129 120 121 121 121 124 125 123 124 128 131 130 128 127 126 122 118 116 116 118 115 93 64 44 31 10 351 338 334 331 4 2 10 20 32 28 30 37 33 23 13 9 21
132 124 129 131 131 135 137 136 132 132 134 134 132 130 127 122 120 119 120 119 114 91 64 39 27 16 359 347 324 306 73 56 341 347 39 39 34 33 38 31 28 24 15 11
146 146 145 141 140 141 142 140 136 136 136 135 132 131 130 128 125 122 117 104 90 76 51 27 15 5 358 356 331 335 57 122 190 262 50 40 39 40 40 35 33 29 23 21
151 148 148 144 142 141 141 139 138 138 137 133 133 136 136 134 125 119 113 115 118 96 56 32 15 350 8 15 359 351 35 75 79 59 59 48 37 47 48 49 43 30 19 23
140 141 142 142 143 143 142 140 140 138 136 137 139 134 126 119 117 119 123 121 110 85 54 40 360 339 33 33 324 85 58 72 81 78 80 98 49 50 50 51 47 36 27 18
141 141 141 142 143 141 139 138 137 136 138 138 134 131 128 124 125 124 121 94 55 41 39 18 357 31 42 46 313 54 74 73 76 78 71 65 60 57 53 47 40 36 37 30
143 143 143 142 141 141 141 141 141 140 140 142 139 134 129 129 131 134 147 109 86 38 29 187 6 37 45 26 274 65 76 71 72 73 68 66 63 58 54 51 46 40 38 33
146 145 144 143 144 144 144 145 144 142 142 142 137 134 135 138 136 121 80 65 84 5 325 51 56 46 4 303 69 73 75 69 69 73 70 61 60 60 57 50 47 44 42 36
147 147 147 149 149 147 148 149 147 146 147 146 143 145 143 130 130 132 121 100 82 48 25 56 52 4 300 282 72 77 71 64 63 69 74 67 60 58 60 59 53 47 43 35
151 151 152 151 149 152 155 154 151 152 152 147 141 140 143 142 132 105 98 108 77 16 68 83 62 296 278 40 75 79 81 75 71 71 74 79 75 67 63 61 61 58 53 45
154 154 153 155 157 159 156 154 153 156 156 146 144 151 157 136 126 115 110 114 129 203 115 121 196 272 271 70 74 74 67 51 39 44 74 68 73 77 70 63 59 58 53 47
156 159 159 166 161 157 159 163 164 163 160 155 153 152 144 134 132 136 142 133 127 163 120 128 141 210 79 80 77 75 90 114 113 82 69 71 74 74 73 69 67 60 57 50
161 159 163 166 164 166 166 168 165 165 164 160 154 150 150 152 150 146 145 136 137 126 100 98 96 90 86 86 86 86 84 81 77 80 85 81 79 80 82 76 68 65 61 58